Location: ???????
(60.4260°N, 46.9069°E)
Time: 17:44:13
(UTC+00:00)

Cosmos 839 Rocket - Pass Details

Date: 30 March 2020
Orbit: 962 x 2090 km, 65.9° (Epoch: 05 June)

Event Time Altitude Azimuth Distance (km) Brightness Sun altitude
Exits shadow 00:56:10 14° 244° (WSW) 2,485 5.4 -10.9°
Maximum altitude 01:01:46 79° 331° (NNW) 1,110 4.3 -10.3°
Drops below altitude 10° 01:09:21 10° 58° (ENE) 3,266 8.4 -9.4°
Sets 01:12:27 0° 60° (ENE) 4,395 9.8 -9.1°
